Location: NJAA Observatory
(40.6819°N, 74.8979°W)
Time: 11:45:25
(UTC-04:00)

Courier 1B - All Passes

Search period start: 21 August 2017 00:00
Search period end: 31 August 2017 00:00
Orbit: 963 x 1209 km, 28.3° (Epoch: 20 August)

Date Brightness Start Highest point End Pass type
(mag) Time Alt. Az. Time Alt. Az. Time Alt. Az.
21 Aug - 01:30:21 10° SSW 01:35:39 21° SSE 01:40:45 10° ESE visible
21 Aug - 03:22:49 10° SW 03:28:58 29° S 03:34:49 10° ESE visible
21 Aug - 05:16:38 10° WSW 05:22:16 26° SSW 05:27:38 10° SE visible
21 Aug - 07:12:20 10° SW 07:15:15 13° SSW 07:18:06 10° S daylight
22 Aug - 00:37:16 10° SSW 00:42:01 18° SSE 00:46:39 10° ESE night (unlit)
22 Aug - 02:29:08 10° SW 02:35:20 28° S 02:41:14 10° ESE visible
22 Aug - 04:22:41 10° WSW 04:28:41 28° S 04:34:23 10° SE visible
22 Aug - 06:17:35 10° WSW 06:21:47 17° SSW 06:25:51 10° SSE daylight
22 Aug - 23:44:33 10° S 23:48:24 14° SSE 23:52:11 10° SE night (unlit)
23 Aug - 01:35:32 10° SW 01:41:40 27° S 01:47:32 10° ESE visible
23 Aug - 03:28:47 10° WSW 03:35:04 30° S 03:41:01 10° SE visible
23 Aug - 05:23:13 10° WSW 05:28:16 21° SSW 05:33:08 10° SSE visible
23 Aug - 22:52:47 10° SSE 22:54:48 11° SSE 22:56:47 10° SE night (unlit)
24 Aug - 00:42:04 10° SW 00:48:00 24° SSE 00:53:43 10° ESE night (unlit)
24 Aug - 02:34:57 10° WSW 02:41:24 31° S 02:47:33 10° ESE visible
24 Aug - 04:29:03 10° WSW 04:34:43 24° SSW 04:40:08 10° SE visible
24 Aug - 06:25:58 10° SW 06:27:41 11° SSW 06:29:22 10° SSW daylight
24 Aug - 23:48:48 10° SSW 23:54:19 21° SSE 23:59:43 10° ESE night (unlit)
25 Aug - 01:41:11 10° SW 01:47:43 31° S 01:53:58 10° ESE visible
25 Aug - 03:35:01 10° WSW 03:41:07 28° S 03:46:57 10° SE visible
25 Aug - 05:30:27 10° WSW 05:34:12 15° SSW 05:37:52 10° S visible
25 Aug - 22:55:47 10° SSW 23:00:40 18° SSE 23:05:28 10° ESE night (unlit)
26 Aug - 00:47:31 10° SW 00:54:00 29° S 01:00:17 10° ESE night (unlit)
26 Aug - 02:41:02 10° WSW 02:47:28 30° S 02:53:36 10° SE visible
26 Aug - 04:35:49 10° WSW 04:40:41 19° SSW 04:45:22 10° SSE visible
26 Aug - 22:03:13 10° S 22:07:02 14° SSE 22:10:49 10° SE visible
26 Aug - 23:53:58 10° SW 00:00:18 27° SSE 00:06:29 10° ESE night (unlit)
27 Aug - 01:47:08 10° WSW 01:53:46 32° S 02:00:09 10° ESE night (unlit)
27 Aug - 03:41:30 10° WSW 03:47:07 23° SSW 03:52:30 10° SSE visible
27 Aug - 21:11:56 10° SSE 21:13:25 11° SSE 21:14:53 10° SE visible
27 Aug - 23:00:34 10° SW 23:06:35 24° SSE 23:12:32 10° ESE visible
28 Aug - 00:53:20 10° WSW 01:00:03 32° S 01:06:34 10° ESE night (unlit)
28 Aug - 02:47:21 10° WSW 02:53:29 27° SSW 02:59:23 10° SE visible
28 Aug - 04:43:32 10° SW 04:46:34 13° SSW 04:49:32 10° S visible
28 Aug - 22:07:24 10° SSW 22:12:54 21° SSE 22:18:24 10° ESE visible
28 Aug - 23:59:36 10° SW 00:06:19 31° S 00:12:53 10° ESE night (unlit)
29 Aug - 01:53:18 10° WSW 01:59:49 30° S 02:06:05 10° SE night (unlit)
29 Aug - 03:48:30 10° WSW 03:53:01 17° SSW 03:57:25 10° SSE visible
29 Aug - 21:14:33 10° SSW 21:19:15 17° SSE 21:23:58 10° ESE visible
29 Aug - 23:06:00 10° SW 23:12:34 30° S 23:19:04 10° ESE visible
30 Aug - 00:59:23 10° WSW 01:06:05 32° S 01:12:38 10° SE night (unlit)
30 Aug - 02:54:00 10° WSW 02:59:26 21° SSW 03:04:42 10° SSE night (unlit)
30 Aug - 20:22:15 10° S 20:25:38 13° SSE 20:29:02 10° SE visible
30 Aug - 22:12:33 10° SW 22:18:50 27° SSE 22:25:08 10° ESE visible
